sat.trackr.live / text

‹ back to catalog

STARLINK-32465

NORAD 61716 · 2024-196K

PAYLOAD ACTIVE UNKNOWN

§ Identity

Operator
Country
US
Launch date
2024-10-30
Launch site
AFETR
Launch vehicle
Mass (kg)
RCS (m²)

Purposes: comms

External: N2YO · Heavens-Above · Gunter

§ Orbital elements

Epoch: 2026-09-21T06:52:42.493152Z

Period
93.85 min
Inclination
53.1592°
Eccentricity
0.0001275
Mean motion
15.34393014 rev/d
Perigee alt
461.9 km
Apogee alt
463.6 km
Semi-major
6,840.9 km
B*
3.1180e-5
RAAN
269.9569°
Arg perigee
84.5345°
Mean anomaly
275.5803°
Rev number
10,714

§ Raw data

STARLINK-324651 61716U 24196K   26264.28660293  .00000677  00000+0  31180-4 0  99952 61716  53.1592 269.9569 0001275  84.5345 275.5803 15.34393014107144

JSON: /api/v1/satellites/61716 · /tle

For live sub-satellite position, see the globe view (requires WebGL).

§ Visibility from observer

Set your observer location to see the next 7 days of passes ≥ 10°. The values pass through the URL so the page stays shareable.

No JS? Fill the form by hand. The geolocation button needs JavaScript.